Simultaneous Nadir Overpasses (SNOs) Predictions

Prediction of SNOs between GOES-16 and NPP Satellite Orbit:

Table of predicted SNOs for the next 14.0 days since TLE Epoch: 8/5/2023
Index Date Time (GOES-16) GOES-16 Lat,Lon NPP Lat,Lon Distance(km) Time Diff (sec)
1 08/05/2023 18:40:36 0.00, -75.21 -0.80, -78.77 405.87 80
2 08/06/2023 18:24:32 0.00, -75.22 0.24, -74.24 112.06 80
3 08/08/2023 06:46:19 -0.00, -75.24 0.94, -79.52 486.53 80
4 08/09/2023 06:24:54 0.00, -75.26 -0.04, -74.98 31.67 80
5 08/11/2023 18:28:06 -0.01, -75.31 -0.09, -75.76 51.23 80
6 08/12/2023 18:12:00 -0.01, -75.33 0.89, -71.23 467.42 80
7 08/14/2023 06:33:47 0.01, -75.36 0.27, -76.50 129.99 80
8 08/15/2023 06:12:23 0.01, -75.39 -0.78, -71.98 388.97 80
9 08/16/2023 18:34:18 -0.01, -75.43 -0.44, -77.28 210.92 80
10 08/17/2023 18:18:14 -0.01, -75.46 0.61, -72.76 308.64 80
